{"data":{"norad_id":63905,"intl_designator":"2025-095R","name":"STARLINK-34114","alt_names":[],"object_type":"PAYLOAD","status":"ACTIVE","operator":null,"country":"US","launch_date":"2025-05-10","launch_site_code":"AFETR","launch_vehicle":null,"mission":null,"orbit_class":"UNKNOWN","rcs_meters":null,"size_class":null,"mass_kg":null,"dimensions":null,"purposes":["comms"],"wikipedia_slug":null,"has_3d_model":false,"image_url":null,"decayed_at":null,"tle_current":{"epoch":"2026-05-25T04:37:03.861120Z","epoch_age_seconds":48645,"freshness":"FRESH","line1":"1 63905U 25095R   26145.19240580  .00014037  00000+0  51848-3 0  9994","line2":"2 63905  43.0011 104.5421 0000938 267.2383  92.8361 15.27591278 59473","mean_motion":15.27591278,"eccentricity":9.38e-5,"inclination_deg":43.0011,"raan_deg":104.5421,"arg_perigee_deg":267.2383,"mean_anomaly_deg":92.8361,"bstar":0.00051848,"rev_number":5947,"period_min":94.266052754983,"perigee_km":482.37174977002,"apogee_km":483.65890194635,"semimajor_km":6861.1523258582,"source":"CELESTRAK","updated_at":"2026-05-25T13:38:20.178066Z"}}}